Weather History for K4A6 - April, 2014

Change the Weather History Date:

Monday, April 7, 2014

  Actual Average (KHSV) Record (KHSV)
Temperature  
Mean Temperature 58 °F 59 °F  
Max Temperature 66 °F 71 °F 87 °F (1959)
Min Temperature 50 °F 47 °F 25 °F (2007)
Degree Days  
Heating Degree Days 7 7  
Month to date heating degree days 53  
Since 1 July heating degree days 2873  
Cooling Degree Days 0 1  
Month to date cooling degree days 7  
Year to date cooling degree days 21  
Growing Degree Days 8 (Base 50)    
Moisture  
Dew Point 51 °F    
Average Humidity 84    
Maximum Humidity 100    
Minimum Humidity 67    
Precipitation  
Precipitation 1.30 in 0.15 in 4.10 in (1918)
Month to date precipitation 1.03  
Year to date precipitation 15.97  
Snow  
Snow 0.00 in - - ()
Month to date snowfall  
Since 1 July snowfall  
Snow Depth -    
Sea Level Pressure  
Sea Level Pressure 29.73 in    
Wind  
Wind Speed 7 mph (WSW)    
Max Wind Speed 17 mph    
Max Gust Speed 28 mph    
Visibility 8 miles    
Events Rain , Thunderstorm    
T = Trace of Precipitation, MM = Missing Value Source: NWS Daily Summary

Daily Weather History Graph

Daily Weather History Graph

Search for Another Location

Airport or City:

Trip Planner

Search our weather history database for the weather conditions in past years. The results will help you decide how hot, cold, wet, or windy it might be!

Date:

Astronomy

Apr. 07, 2014 Rise Set
Actual Time 6:22 AM CDT 7:09 PM CDT
Civil Twilight 5:57 AM CDT 7:35 PM CDT
Nautical Twilight 5:27 AM CDT 8:05 PM CDT
Astronomical Twilight 4:56 AM CDT 8:36 PM CDT
Moon 12:24 PM CDT (4/7) 1:40 AM CDT (4/7)
Length of Visible Light 13h 38m
Length of Day
12h 47m
First Quarter, 53% of the Moon is Illuminated
Apr 7
First Quarter
Apr 15
Full
Apr 22
Last Quarter
Apr 29
New
May 6
First Quarter

Hourly Weather History & Observations

Time (CDT) Temp. Dew Point Humidity Pressure Visibility Wind Dir Wind Speed Gust Speed Precip Events Conditions
12:15 AM 50.0 °F 50.0 °F 100% 29.82 in 1.8 mi NE 11.5 mph 16.1 mph 0.09 in Rain Heavy Rain
12:35 AM 51.8 °F 51.8 °F 100% 29.88 in 2.0 mi Calm Calm - 0.25 in Rain Rain
12:55 AM 51.8 °F 51.8 °F 100% 29.87 in 3.0 mi East 3.5 mph - 0.34 in Rain Rain
1:15 AM 50.0 °F 50.0 °F 100% 29.82 in 3.0 mi NE 4.6 mph - 0.06 in Rain Rain
1:35 AM 50.0 °F 50.0 °F 100% 29.81 in 4.0 mi North 6.9 mph - 0.12 in Rain Light Rain
1:55 AM 50.0 °F 50.0 °F 100% 29.80 in 4.0 mi North 4.6 mph - 0.15 in Rain Light Rain
2:15 AM 51.8 °F 51.8 °F 100% 29.80 in 3.0 mi ENE 4.6 mph - 0.05 in Rain Rain
2:35 AM 53.6 °F 50.0 °F 88% 29.78 in 2.5 mi NE 8.1 mph - 0.14 in Rain Heavy Rain
2:55 AM 53.6 °F 50.0 °F 88% 29.78 in 5.0 mi NNW 4.6 mph - 0.16 in Rain Light Rain
3:15 AM 53.6 °F 51.8 °F 94% 29.81 in 3.0 mi Calm Calm - 0.07 in Rain , Thunderstorm Rain
3:35 AM 53.6 °F 51.8 °F 94% 29.77 in 2.5 mi NE 8.1 mph - 0.18 in Rain Heavy Rain
3:55 AM 53.6 °F 51.8 °F 94% 29.80 in 3.0 mi North 3.5 mph - 0.29 in Rain Rain
4:15 AM 51.8 °F 51.8 °F 100% 29.79 in 2.0 mi East 4.6 mph - 0.11 in Rain Heavy Rain
4:35 AM 53.6 °F 51.8 °F 94% 29.79 in 4.0 mi NE 4.6 mph - 0.21 in Rain Rain
4:55 AM 53.6 °F 51.8 °F 94% 29.79 in 3.0 mi South 5.8 mph - 0.30 in Rain Rain
5:15 AM 53.6 °F 51.8 °F 94% 29.70 in 4.0 mi East 11.5 mph 19.6 mph 0.04 in Rain Light Rain
5:35 AM 53.6 °F 50.0 °F 88% 29.71 in 10.0 mi South 6.9 mph 18.4 mph 0.05 in Rain Light Rain
5:55 AM 55.4 °F 50.0 °F 82% 29.71 in 10.0 mi East 4.6 mph - 0.05 in   Mostly Cloudy
6:15 AM 53.6 °F 50.0 °F 88% 29.70 in 10.0 mi ESE 8.1 mph - N/A   Scattered Clouds
6:35 AM 55.4 °F 50.0 °F 82% 29.74 in 10.0 mi South 3.5 mph - N/A   Scattered Clouds
6:55 AM 55.4 °F 50.0 °F 82% 29.72 in 10.0 mi NE 6.9 mph - N/A   Overcast
7:15 AM 55.4 °F 50.0 °F 82% 29.72 in 10.0 mi SE 6.9 mph - N/A   Mostly Cloudy
7:35 AM 55.4 °F 50.0 °F 82% 29.71 in 10.0 mi SSE 5.8 mph - N/A   Mostly Cloudy
7:55 AM 55.4 °F 50.0 °F 82% 29.70 in 10.0 mi SSE 5.8 mph - N/A   Mostly Cloudy
8:15 AM 55.4 °F 50.0 °F 82% 29.71 in 10.0 mi SSW 6.9 mph - N/A   Mostly Cloudy
8:35 AM 55.4 °F 50.0 °F 82% 29.70 in 10.0 mi SW 3.5 mph - N/A   Mostly Cloudy
8:55 AM 55.4 °F 51.8 °F 88% 29.68 in 10.0 mi SSW 5.8 mph - N/A   Mostly Cloudy
9:15 AM 57.2 °F 53.6 °F 88% 29.67 in 10.0 mi SW 4.6 mph - N/A   Overcast
9:35 AM 57.2 °F 53.6 °F 88% 29.67 in 10.0 mi South 8.1 mph - N/A   Mostly Cloudy
9:55 AM 57.2 °F 53.6 °F 88% 29.67 in 10.0 mi WSW 5.8 mph - N/A   Mostly Cloudy
10:15 AM 57.2 °F 53.6 °F 88% 29.66 in 10.0 mi WSW 5.8 mph - N/A   Overcast
10:35 AM 57.2 °F 53.6 °F 88% 29.65 in 10.0 mi South 5.8 mph - N/A   Overcast
11:15 AM 59.0 °F 55.4 °F 88% 29.65 in 10.0 mi SSW 4.6 mph - N/A   Overcast
11:35 AM 59.0 °F 55.4 °F 88% 29.64 in 3.0 mi SW 10.4 mph 20.7 mph N/A Rain Light Rain
11:55 AM 59.0 °F 57.2 °F 94% 29.65 in 2.5 mi SSW 8.1 mph 16.1 mph N/A Rain Light Rain
12:15 PM 59.0 °F 57.2 °F 94% 29.65 in 3.0 mi SW 5.8 mph - 0.01 in Rain Light Rain
12:35 PM 59.0 °F 57.2 °F 94% 29.64 in 5.0 mi SSW 5.8 mph - 0.01 in Rain Light Rain
12:55 PM 59.0 °F 57.2 °F 94% 29.65 in 7.0 mi SSW 9.2 mph - 0.01 in Rain Light Rain
1:15 PM 59.0 °F 57.2 °F 94% 29.65 in 10.0 mi South 10.4 mph 16.1 mph N/A Rain Light Rain
1:35 PM 59.0 °F 57.2 °F 94% 29.64 in 10.0 mi WSW 8.1 mph - N/A   Overcast
1:55 PM 59.0 °F 57.2 °F 94% 29.63 in 10.0 mi SSW 9.2 mph - N/A   Overcast
2:15 PM 60.8 °F 59.0 °F 94% 29.63 in 10.0 mi SSW 6.9 mph - N/A   Overcast
2:35 PM 62.6 °F 59.0 °F 88% 29.62 in 10.0 mi WSW 8.1 mph - N/A   Overcast
3:15 PM 64.4 °F 60.8 °F 88% 29.61 in 10.0 mi SW 5.8 mph - N/A   Mostly Cloudy
3:55 PM 66.2 °F 59.0 °F 78% 29.60 in 10.0 mi West 11.5 mph 21.9 mph N/A   Mostly Cloudy
4:15 PM 66.2 °F 55.4 °F 68% 29.62 in 10.0 mi West 16.1 mph 25.3 mph N/A   Mostly Cloudy
4:35 PM 64.4 °F 55.4 °F 73% 29.63 in 10.0 mi West 15.0 mph 21.9 mph N/A   Mostly Cloudy
4:55 PM 62.6 °F 53.6 °F 72% 29.65 in 10.0 mi West 15.0 mph 20.7 mph N/A   Overcast
5:15 PM 60.8 °F 50.0 °F 68% 29.67 in 10.0 mi West 11.5 mph 23.0 mph N/A   Overcast
5:35 PM 59.0 °F 48.2 °F 67% 29.68 in 10.0 mi West 17.3 mph 26.5 mph N/A   Overcast
5:55 PM 59.0 °F 48.2 °F 67% 29.70 in 10.0 mi West 13.8 mph 27.6 mph N/A   Overcast
6:15 PM 57.2 °F 48.2 °F 72% 29.72 in 10.0 mi WNW 12.7 mph 20.7 mph N/A   Overcast
6:35 PM 57.2 °F 46.4 °F 67% 29.73 in 10.0 mi West 5.8 mph - N/A   Overcast
6:55 PM 57.2 °F 46.4 °F 67% 29.74 in 10.0 mi West 9.2 mph - N/A   Overcast
7:15 PM 57.2 °F 46.4 °F 67% 29.75 in 10.0 mi West 10.4 mph - N/A   Overcast
7:35 PM 55.4 °F 46.4 °F 72% 29.76 in 10.0 mi WSW 11.5 mph 16.1 mph N/A   Overcast
7:55 PM 55.4 °F 46.4 °F 72% 29.77 in 10.0 mi West 9.2 mph - N/A   Overcast
8:15 PM 55.4 °F 46.4 °F 72% 29.78 in 10.0 mi West 6.9 mph - N/A   Overcast
8:35 PM 55.4 °F 46.4 °F 72% 29.80 in 10.0 mi West 9.2 mph - N/A   Overcast
8:55 PM 55.4 °F 44.6 °F 67% 29.82 in 10.0 mi West 9.2 mph 17.3 mph N/A   Overcast
9:15 PM 53.6 °F 44.6 °F 72% 29.83 in 10.0 mi WNW 10.4 mph 16.1 mph N/A   Overcast
9:35 PM 53.6 °F 42.8 °F 67% 29.84 in 10.0 mi West 10.4 mph 20.7 mph N/A   Overcast
9:55 PM 51.8 °F 42.8 °F 71% 29.85 in 10.0 mi West 8.1 mph - N/A   Overcast
10:15 PM 51.8 °F 42.8 °F 71% 29.84 in 10.0 mi West 8.1 mph - N/A   Overcast
10:35 PM 50.0 °F 41.0 °F 71% 29.85 in 10.0 mi West 5.8 mph - N/A   Scattered Clouds
10:55 PM 50.0 °F 42.8 °F 76% 29.85 in 10.0 mi WNW 5.8 mph - N/A   Mostly Cloudy
11:15 PM 50.0 °F 42.8 °F 76% 29.85 in 10.0 mi WNW 9.2 mph - N/A   Overcast
11:35 PM 50.0 °F 42.8 °F 76% 29.85 in 10.0 mi WNW 8.1 mph - N/A   Overcast
11:55 PM 50.0 °F 42.8 °F 76% 29.84 in 10.0 mi West 8.1 mph - N/A   Mostly Cloudy